Preview of NWS' New Version of Forecast
This preview is not operational and should not be used for support decisions.

Regional Weather Roundup (RWR)

Issued by Guam, GU (GUM)

                            
476 
ASGM40 PGUM 212310
RWRGUM
WEATHER ROUNDUP FOR THE MARIANAS
NATIONAL WEATHER SERVICE TIYAN GU
900 AM CHST FRI JUN 22 2018

GUZ001>004-220000-
MARIANA ISLANDS-
  
CITY           SKY/WX    TMP DP  RH WIND       PRES   REMARKS
GUAM AIRPORT   MOSUNNY   84  79  84 E15       29.95R HX  96           
ANDERSEN AFB   PTSUNNY   84  73  70 E10       29.97R HX  91           
ROTA AIRPORT   PTSUNNY   82  73  74 E14       29.95R                  
TINIAN AP      MOSUNNY   82  79  89 E12       29.93S HX  93           
SAIPAN AP      MOSUNNY   86  79  79 E14       29.94S HX  99           

$$